Regional Weather Roundup
Issued by NWS

Home | Current Version | Previous Version | Text Only | Print | Product List | Glossary Off
Versions: 1 2 3 4 5 6 7 8 9 10 11 12 13 14 15 16 17 18 19 20 21 22 23 24 25 26 27 28 29 30 31 32 33 34 35 36 37 38 39 40 41 42 43 44 45 46 47 48 49 50

950
ASUS45 KBOI 062110
RWRID

IDAHO REGIONAL WEATHER ROUNDUP
NATIONAL WEATHER SERVICE BOISE ID
200 PM MST TUE DEC 06 2016

NOTE: "FAIR" INDICATES FEW OR NO CLOUDS BELOW 12000 FEET
WITH NO SIGNIFICANT WEATHER AND/OR OBSTRUCTIONS TO VISIBILITY

IDZ012-014-062200-
SOUTHWEST IDAHO


CITY           SKY/WX    TMP DP  RH WIND       PRES   REMARKS
BOISE          CLOUDY    25  20  81 SW7       29.94R WCI  17
CALDWELL       CLOUDY    29  20  69 CALM      29.98R
$$

IDZ016-017-062200-
SOUTHCENTRAL IDAHO


CITY           SKY/WX    TMP DP  RH WIND       PRES   REMARKS
BURLEY         SNOW      21  18  88 NE3       29.80S VSB 1/2
JEROME         CLOUDY    21  18  88 SW3       29.84R
TWIN FALLS     LGT SNOW  22  18  85 CALM      29.83R FOG
$$

IDZ019>023-062200-
SOUTHEAST IDAHO


CITY           SKY/WX    TMP DP  RH WIND       PRES   REMARKS
IDAHO FALLS    CLOUDY    18   8  65 CALM      29.80F HAZE
POCATELLO      LGT SNOW  20  13  74 E3        29.81F
REXBURG        CLOUDY    16   3  56 CALM      29.80S
$$

IDZ006-010-011-018-031-032-062200-
CENTRAL IDAHO MOUNTAINS


CITY           SKY/WX    TMP DP  RH WIND       PRES   REMARKS
MCCALL         CLOUDY    20  13  74 W7        29.78R WCI  11
HAILEY         LGT SNOW  18  12  79 SE6       29.77R VSB 1   WCI   9
STANLEY          N/A      7   2  80 N6        29.72F WCI  -3
SALMON         CLOUDY    14   9  79 CALM      29.88S
CHALLIS        CLOUDY    14   9  80 CALM      29.79F
$$

IDZ002-004-006-007-026-062200-
NORTHERN IDAHO


CITY           SKY/WX    TMP DP  RH WIND       PRES   REMARKS
LEWISTON       LGT SNOW  31  28  89 W6        30.01R FOG     WCI  25
LOWELL         NOT AVBL
COEUR D`ALENE  SUNNY     29  15  56 N17       30.00R WCI  17
MULLAN PASS    LGT SNOW  10   7  87 CALM      29.77R FOG
$$




USA.gov is the U.S. government's official web portal to all federal, state and local government web resources and services.